NSS-12

Last updated on Thu Nov 21 2024 00:02:41 GMT+0000 (Coordinated Universal Time)

1 36032U 09058A 24325.22549441 .00000073 00000+0 00000+0 0 9991 2 36032 0.0558 76.9285 0003774 165.1524 315.8426 1.00271379 55162
UTC large
Height (km)
Speed (km/s)
/
Latitude / Longitude
Inclination (degrees)
Orbital Period (minutes)
Azimuth
Elevation
Range (km)
Doppler Factor

Next 0 passes for location: London (51.5072 / 0.1276)

Sorry there are no passes over London.